This is the latest recevied weather packets stored in our database for station/object KJ6LNH-1. If no packets are shown the sender has not sent any weather packets the latest 10 day(s).
| Time | Temp. | Humidity | Pressure | Rain* | Wind** | Luminosity | Snow |
|---|---|---|---|---|---|---|---|
| 1787865308 | 34.44° C | 26% | 1012.7 hPa | 0 mm | - | - | - |
| 1787865007 | 34.44° C | 27% | 1012.8 hPa | 0 mm | - | - | - |
| 1787864408 | 34.44° C | 27% | 1012.8 hPa | 0 mm | - | - | - |
| 1787864108 | 35° C | 27% | 1012.8 hPa | 0 mm | - | - | - |
| 1787863806 | 34.44° C | 27% | 1012.8 hPa | 0 mm | - | - | - |
| 1787863506 | 33.89° C | 28% | 1012.8 hPa | 0 mm | - | - | - |
| 1787863206 | 33.89° C | 28% | 1012.9 hPa | 0 mm | - | - | - |
| 1787862007 | 33.33° C | 29% | 1012.7 hPa | 0 mm | - | - | - |
| 1787861707 | 32.78° C | 29% | 1012.8 hPa | 0 mm | - | - | - |
| 1787861406 | 32.22° C | 30% | 1012.8 hPa | 0 mm | - | - | - |
| 1787861107 | 32.78° C | 30% | 1012.7 hPa | 0 mm | - | - | - |
| 1787860806 | 32.22° C | 30% | 1012.7 hPa | 0 mm | - | - | - |
| 1787860507 | 31.67° C | 31% | 1012.8 hPa | 0 mm | - | - | - |
| 1787860207 | 32.22° C | 31% | 1012.8 hPa | 0 mm | - | - | - |
| 1787859607 | 31.67° C | 31% | 1012.7 hPa | 0 mm | - | - | - |
| 1787859309 | 31.11° C | 32% | 1012.8 hPa | 0 mm | - | - | - |
| 1787859007 | 31.11° C | 33% | 1012.9 hPa | 0 mm | - | - | - |
| 1787858706 | 31.67° C | 33% | 1013 hPa | 0 mm | - | - | - |
| 1787858407 | 31.11° C | 33% | 1013 hPa | 0 mm | - | - | - |
| 1787857806 | 30.56° C | 34% | 1012.9 hPa | 0 mm | - | - | - |
| 1787857508 | 31.11° C | 34% | 1012.8 hPa | 0 mm | - | - | - |
| 1787856908 | 31.67° C | 33% | 1013 hPa | 0 mm | - | - | - |
| 1787856606 | 31.11° C | 34% | 1013.1 hPa | 0 mm | - | - | - |
| 1787856307 | 30.56° C | 35% | 1013.1 hPa | 0 mm | - | - | - |
| 1787856006 | 30.56° C | 35% | 1013 hPa | 0 mm | - | - | - |
* Rain latest hour (hover to see other rain measurements)
** Current wind speed in m/s (hover to see current wind gust speed)